This demonstration page uses our WeatherBlox Daily Observations layout. Learn more.

Left ArrowRight Arrow

38.83388, -104.82136

Hourly Observations for November 8, 2019

Temp ( °F °C ) Dew Point ( °F °C ) Humidity (%) Winds ( mph kmh ) Pressure ( in mb ) Visibility ( mi km ) Precip ( " mm )
12:58 am 00:58 Clear 40 4.4 17 -8.6 39 39 W 5 7 29.99 1016 10 16 0.00 0.00
2:58 am 02:58 Clear 45 7.2 7 -13.9 21 21 SSW 7 11 29.96 1015 10 16 0.00 0.00
3:58 am 03:58 Clear 42 5.5 11 -11.8 28 28 Calm 29.97 1015 10 16 0.00 0.00
4:58 am 04:58 Clear 43 5.9 10 -12 27 27 W 5 7 29.97 1015 10 16 0.00 0.00
5:58 am 05:58 Clear 41 4.9 11 -11.6 29 29 W 6 9 30.00 1016 10 16 0.00 0.00
6:58 am 06:58 Sunny 45 7.4 9 -12.7 23 23 WNW 6 9 29.98 1015 10 16 0.00 0.00
7:58 am 07:58 Sunny 49 9.5 11 -11.8 21 21 Calm 29.97 1015 10 16 0.00 0.00
9:58 am 09:58 Sunny 54 12.1 16 -8.9 22 22 SE 8 13 29.96 1015 10 16 0.00 0.00
10:58 am 10:58 Sunny 54 12.3 18 -7.7 24 24 ESE 8 13 29.97 1015 10 16 0.00 0.00
11:58 am 11:58 Sunny 55 12.5 15 -9.2 21 21 SE 12 19 29.90 1013 10 16 0.00 0.00
12:58 pm 12:58 Sunny 57 13.8 16 -8.9 20 20 SE 9 15 29.86 1011 10 16 0.00 0.00
1:58 pm 13:58 Sunny 58 14.2 17 -8.6 20 20 SSE 6 9 29.90 1013 10 16 0.00 0.00
2:58 pm 14:58 Sunny 54 12.3 20 -6.8 26 26 S 3 6 29.83 1010 10 16 0.00 0.00
3:58 pm 15:58 Sunny 50 10.2 21 -5.9 32 32 Calm 29.88 1012 10 16 0.00 0.00
4:58 pm 16:58 Clear 49 9.2 20 -6.5 33 33 WNW 7 11 29.92 1013 10 16 0.00 0.00
5:58 pm 17:58 Clear 50 10 16 -8.8 26 26 NNW 3 6 29.91 1013 10 16 0.00 0.00
6:58 pm 18:58 Clear 49 9.2 17 -8.6 28 28 NW 7 11 30.07 1018 10 16 0.00 0.00
7:58 pm 19:58 Clear 50 9.9 14 -9.8 24 24 WNW 12 19 29.90 1012 10 16 0.00 0.00
8:58 pm 20:58 Clear 49 9.6 16 -8.8 27 27 WNW 7 11 29.92 1013 10 16 0.00 0.00
9:58 pm 21:58 Clear 47 8.2 17 -8.6 30 30 WNW 8 13 29.93 1013 10 16 0.00 0.00
10:58 pm 22:58 Clear 48 8.9 14 -9.8 26 26 Calm 29.90 1013 10 16 0.00 0.00

Powered by AerisWeather